Regional Weather Roundup
Issued by NWS Midland/Odessa, TX

Skip options and go directly to product.
Home | Oldest Version | Previous Version | Current Version | All | Graphics & Text | Save Text | Print | Product List | Glossary On

Skip product version selection by date and time.   
763
ASUS44 KMAF 290010
RWRMAF
MIDLAND AREA WEATHER ROUNDUP
NATIONAL WEATHER SERVICE MIDLAND TX
600 PM CST WED JAN 28 2015

...IN SOUTHWEST TEXAS AND SOUTHEAST NEW MEXICO...

CITY           SKY/WX    TMP DP  RH WIND       PRES   REMARKS
ALPINE         PTCLDY    68  44  41 SW7       30.18F
ANDREWS        FAIR      73  39  29 W3        30.05S
ARTESIA        CLEAR     68  41  37 NE8       30.06R
BIG SPRING     CLEAR     74  40  29 SW7       30.06S
CARLSBAD       CLEAR     70  38  31 W9        30.04S
DRYDEN           N/A     76  40  27 SE12      30.04R
FORT STOCKTON  MOCLDY    74  49  41 N6        30.05S
GUAD PASS      CLEAR     63  35  35 SW16G26   30.16R
HOBBS          CLEAR     70  36  28 SW9       30.07F
MARFA          PTCLDY    68  45  42 SE10      30.16S
MIDLAND AIRPK  CLEAR     75  43  31 SW5       30.04F
MIDLAND INTL   CLEAR     72  45  37 SW3       30.04F
ODESSA         CLEAR     73  42  32 SW5       30.05F
PECOS          PTCLDY    74  46  36 NW5       30.03R
PRESIDIO       FAIR      77  47  34 CALM      30.05S
SEMINOLE       CLEAR     70  37  30 W6        30.06F
SNYDER         CLEAR    N/A N/A N/A SW7       30.02S
WINK           PTCLDY    75  39  27 W8        30.02S
$$
...OTHER STATIONS IN TEXAS...

CITY           SKY/WX    TMP DP  RH WIND       PRES   REMARKS
ABILENE        CLEAR     75  43  31 S10       30.00R
AMARILLO       PTCLDY    64  32  30 E3        30.04R
AUSTIN         PTCLDY    71  42  35 S9        30.06F
BROWNSVILLE    PTCLDY    69  61  75 SE14      30.13F
CORPUS CHRISTI MOCLDY    67  59  75 SE16      30.11S
DALLAS FTW     MOCLDY    74  43  32 S17       29.96F
DEL RIO        CLEAR     78  38  23 SE10      30.02R
EL PASO        MOCLDY    70  38  31 W6        30.11R
HOUSTON INT    PTCLDY    66  50  56 SE7       30.12R
LUBBOCK        PTCLDY    68  33  27 W9        30.02R
SAN ANGELO     CLEAR     76  42  29 S9        30.02R
SAN ANTONIO    PTCLDY    72  40  31 SE10      30.08F
WACO           PTCLDY    70  41  34 S13       30.03S
WICHITA FALLS  NOT AVBL
$$
...OTHER LOCATIONS IN NEW MEXICO...

CITY           SKY/WX    TMP DP  RH WIND       PRES   REMARKS
ALAMAGORDO     PTCLDY    66  32  28 CALM      30.12S
ALBUQUERQUE    MOCLDY    58  29  33 N15       30.18R
CANNON AFB     CLEAR     64  34  32 W8        30.05R
CLOVIS         CLEAR     63  30  29 W7        30.05R
HOLLOMAN AFB   NOT AVBL
ROSWELL        PTCLDY    69  38  32 S7        30.05S
RUIDOSO        PTCLDY    54  27  35 N6        30.22S
SANTA FE       CLEAR     54  25  32 N13       30.17R
TRUTH OR CONSE CLEAR     67  32  27 S7        30.12R
TUCUMCARI      PTCLDY    64  33  31 SW7       30.00S
$$

USA.gov is the U.S. government's official web portal to all federal, state and local government web resources and services.